Location: Seattle
(47.6064°N, 122.3308°W)
Time: 09:58:28
(UTC-08:00)

SR - All Passes

Search period start: 04 December 2020 00:00
Search period end: 14 December 2020 00:00
Orbit: 579 x 877 km, 66.7° (Epoch: 03 December)

Date Brightness Start Highest point End Pass type
(mag) Time Alt. Az. Time Alt. Az. Time Alt. Az.
04 Dec - 01:09:07 10° NNW 01:14:18 52° NE 01:19:49 10° SE night (unlit)
04 Dec - 02:51:29 10° NW 02:56:13 31° WSW 03:01:12 10° S night (unlit)
04 Dec - 15:46:02 10° SE 15:47:47 12° ESE 15:49:34 10° E daylight
04 Dec - 17:24:34 10° SW 17:28:57 86° WNW 17:33:44 10° NE visible
04 Dec - 19:08:35 10° WNW 19:11:49 18° NNW 19:15:13 10° NNE visible
04 Dec - 22:38:56 10° N 22:40:36 11° NNE 22:42:19 10° NE night (unlit)
05 Dec - 00:19:35 10° NNW 00:24:17 32° NE 00:29:19 10° ESE night (unlit)
05 Dec - 02:01:23 10° NW 02:06:39 57° WSW 02:12:15 10° SSE night (unlit)
05 Dec - 16:35:08 10° S 16:39:19 47° ESE 16:43:50 10° NE daylight
05 Dec - 18:17:42 10° W 18:21:36 28° NW 18:25:47 10° NNE visible
05 Dec - 20:04:52 10° NNW 20:05:25 10° NNW 20:05:58 10° N visible
05 Dec - 23:30:09 10° NNW 23:34:08 21° NE 23:38:20 10° E night (unlit)
06 Dec - 01:11:34 10° NNW 01:16:57 83° ENE 01:22:41 10° SE night (unlit)
06 Dec - 02:54:48 10° WNW 02:58:29 18° WSW 03:02:18 10° SSW night (unlit)
06 Dec - 15:46:24 10° SSE 15:49:53 23° ESE 15:53:34 10° ENE daylight
06 Dec - 17:27:16 10° SW 17:31:34 48° NW 17:36:15 10° NNE visible
06 Dec - 19:12:33 10° NW 19:14:55 14° NNW 19:17:21 10° N visible
06 Dec - 22:40:49 10° N 22:43:48 15° NNE 22:46:55 10° ENE night (unlit)
07 Dec - 00:21:55 10° NNW 00:27:05 49° NE 00:32:36 10° SE night (unlit)
07 Dec - 02:04:13 10° NW 02:09:03 33° WSW 02:14:09 10° S night (unlit)
07 Dec - 14:59:13 10° ESE 15:00:37 11° ESE 15:02:03 10° E daylight
07 Dec - 16:37:21 10° SSW 16:41:45 89° ESE 16:46:33 10° NE daylight
07 Dec - 18:21:13 10° W 18:24:33 19° NNW 18:28:05 10° NNE visible
07 Dec - 21:51:45 10° N 21:53:20 11° NNE 21:54:57 10° NE night (unlit)
07 Dec - 23:32:23 10° NNW 23:37:04 31° NE 23:42:03 10° ESE night (unlit)
08 Dec - 01:14:10 10° NW 01:19:29 60° WSW 01:25:08 10° SSE night (unlit)
08 Dec - 15:47:58 10° S 15:52:08 44° ESE 15:56:38 10° NE daylight
08 Dec - 17:30:22 10° WSW 17:34:21 30° NW 17:38:38 10° NNE visible
08 Dec - 19:17:07 10° NNW 19:18:08 11° NNW 19:19:09 10° N visible
08 Dec - 22:42:57 10° NNW 22:46:54 21° NE 22:51:02 10° E night (unlit)
09 Dec - 00:24:22 10° NNW 00:29:45 79° NE 00:35:31 10° SE night (unlit)
09 Dec - 02:07:28 10° WNW 02:11:21 20° WSW 02:15:21 10° SSW night (unlit)
09 Dec - 14:59:19 10° SSE 15:02:42 22° ESE 15:06:18 10° ENE daylight
09 Dec - 16:40:00 10° SW 16:44:20 51° NW 16:49:05 10° NNE daylight
09 Dec - 18:25:07 10° WNW 18:27:38 14° NNW 18:30:15 10° N visible
09 Dec - 21:53:37 10° N 21:56:33 15° NNE 21:59:34 10° ENE night (unlit)
09 Dec - 23:34:43 10° NNW 23:39:53 47° NE 23:45:23 10° ESE night (unlit)
10 Dec - 01:16:57 10° NW 01:21:54 35° WSW 01:27:05 10° S night (unlit)
10 Dec - 14:12:33 10° ESE 14:13:28 11° ESE 14:14:24 10° E daylight
10 Dec - 15:50:07 10° SSW 15:54:32 84° ESE 15:59:21 10° NE daylight
10 Dec - 17:33:50 10° W 17:37:17 20° NW 17:40:56 10° NNE visible
10 Dec - 21:04:33 10° N 21:06:03 11° NNE 21:07:34 10° NE visible
10 Dec - 22:45:11 10° NNW 22:49:51 30° NE 22:54:47 10° ESE night (unlit)
11 Dec - 00:26:55 10° NW 00:32:18 64° WSW 00:38:00 10° SSE night (unlit)
11 Dec - 02:12:14 10° W 02:13:29 11° WSW 02:14:44 10° WSW night (unlit)
11 Dec - 15:00:48 10° S 15:04:56 41° ESE 15:09:24 10° NE daylight
11 Dec - 16:43:02 10° WSW 16:47:06 31° NW 16:51:28 10° NNE visible
11 Dec - 18:29:31 10° NNW 18:30:50 11° NNW 18:32:10 10° N visible
11 Dec - 21:55:45 10° NNW 21:59:39 20° NE 22:03:43 10° E night (unlit)
11 Dec - 23:37:08 10° NNW 23:42:33 75° NE 23:48:19 10° SE night (unlit)
12 Dec - 01:20:08 10° WNW 01:24:11 21° WSW 01:28:22 10° SSW night (unlit)
12 Dec - 14:12:14 10° SSE 14:15:32 21° ESE 14:19:00 10° ENE daylight
12 Dec - 15:52:43 10° SW 15:57:06 55° NW 16:01:54 10° NNE daylight
12 Dec - 17:37:41 10° WNW 17:40:21 15° NNW 17:43:08 10° N visible
12 Dec - 21:06:25 10° N 21:09:16 14° NNE 21:12:13 10° ENE visible
12 Dec - 22:47:30 10° NNW 22:52:39 45° NE 22:58:09 10° ESE night (unlit)
13 Dec - 00:29:41 10° NW 00:34:43 38° WSW 00:40:00 10° S night (unlit)
13 Dec - 15:02:53 10° SSW 15:07:19 79° ESE 15:12:09 10° NE daylight
13 Dec - 16:46:28 10° W 16:50:00 21° NW 16:53:47 10° NNE visible
13 Dec - 20:17:22 10° N 20:18:46 11° NNE 20:20:12 10° NNE visible
13 Dec - 21:57:59 10° NNW 22:02:36 29° NE 22:07:30 10° E night (unlit)
13 Dec - 23:39:41 10° NW 23:45:06 67° WSW 23:50:51 10° SSE night (unlit)
